Regional Weather Roundup
Issued by NWS Charleston, SC

Current Version | Previous Version | Text Only | Print | Product List | Glossary Off
Versions: 1 2 3 4 5 6 7 8 9 10 11 12 13 14 15 16 17 18 19 20 21 22 23 24 25 26 27 28 29 30 31 32 33 34 35 36 37 38 39 40 41 42 43 44 45 46 47 48 49 50

000
ASUS42 KCHS 230310
RWRCHS

REGIONAL WEATHER ROUNDUP
NATIONAL WEATHER SERVICE CHARLESTON SC
1100 PM EDT TUE JUL 22 2014

NOTE: "FAIR" INDICATES FEW OR NO CLOUDS BELOW 12,000 FEET WITH NO
SIGNIFICANT WEATHER AND/OR OBSTRUCTIONS TO VISIBILITY.

NOT ALL STATIONS ARE QUALITY CONTROLLED BY THE NATIONAL
WEATHER SERVICE. USE DATA WITH CAUTION...ESPECIALLY
DEWPOINT OBSERVATIONS.

SCZ027-030-031-034>040-042>050-230400-
...SOUTH CAROLINA...

CITY           SKY/WX    TMP DP  RH WIND       PRES   REMARKS
N CHARLESTON   PTCLDY    78  74  87 SW3       30.10S
WATERFRONT PRK   N/A     81 N/A N/A S7          N/A
FORT JOHNSON   NOT AVBL
MOUNT PLEASANT FAIR      75  75 100 CALM      30.10S
JOHNS ISLAND   PTCLDY    77  68  73 CALM      30.10S
PINOPOLIS        N/A     81  75  83 S2        30.04R
MONCKS CORNER    N/A     77  77 100 CALM      30.10S
SUMMERVILLE    FAIR      77  77 100 CALM      30.11S
BEAUFORT MCAS  PTCLDY    80  77  90 CALM      30.10R
BEAUFORT ARPT  FAIR      77  77 100 CALM      30.09S
HILTON HEAD IS MOCLDY    79  75  89 CALM      30.10F
GEORGETOWN     NOT AVBL
WALTERBORO     PTCLDY    77 N/A N/A CALM      30.11S
ORANGEBURG     PTCLDY    78  74  87 SE3       30.11R
BARNWELL       CLOUDY    79  73  83 S6        30.11S
AIKEN          MOCLDY    75  75 100 CALM      30.15S
MANNING        FAIR      79 N/A N/A MISG      30.10S
KINGSTREE      NOT AVBL
COLUMBIA       MOCLDY    80  74  81 CALM      30.11R
SUMTER         CLEAR     78  76  95 SW1       30.10R
FLORENCE       PTCLDY    78  75  90 S3        30.10S
MYRTLE BEACH   NOT AVBL
N MYRTLE BEACH PTCLDY    80  74  81 S14       30.10S

$$

GAZ063-065-086>088-099>101-113>116-118-119-134-136>141-150-230400-
...GEORGIA...

CITY           SKY/WX    TMP DP  RH WIND       PRES   REMARKS
SAVANNAH ARPT  PTCLDY    80  74  81 SE3       30.10R
HUNTER AAF     PTCLDY    78  76  92 CALM      30.08R
FORT STEWART   MOCLDY    77  74  90 CALM      30.09R
STATESBORO     NOT AVBL
SYLVANIA       CLOUDY    75  75  99 CALM      30.11F
CLAXTON        MOCLDY   N/A N/A N/A CALM      30.10S
THOMSON        MOCLDY    76  76 100 CALM      30.16R
AUGUSTA-BUSH   MOCLDY    76  73  91 CALM      30.10R
AUGUSTA-DANIEL PTCLDY    79  73  82 NE3       30.12R
SWAINSBORO     MOCLDY    77  77 100 SE5       30.11F
VIDALIA          N/A     73  73 100 CALM      30.10S
ALMA           MOCLDY    75  72  90 NE3       30.08F
WAYCROSS       CLOUDY    79  78  98 CALM      30.08S
JESUP          NOT AVBL
BRUNSWICK      CLEAR     77  73  88 CALM      30.08F
SAINT SIMONS   PTCLDY    80  74  81 SE5       30.07F

$$

SCZ027-028-034-036>038-045-046-048>050-GAZ119-141-230400-
...LAKE AND SUPPLEMENTAL COASTAL OBSERVATIONS...

STATION/POSITION TIME  TEMP    WIND        PRES    WAVE   SWELL
                       AIR SEA DIR/SP/G            HT/PER HT/PER/DIR
                 (UTC) (F)     (DEG/KT/KT) (MB)    (FT/S) (FT/S/D)
UPR LAKE MARION  NOT AVBL
WINYAH BAY       0200   79     180/  4     1019.0S
LAKE MURRAY      0200   80     140/  3/  4 1019.0R
ACE BASIN NERRS  0200   79        CALM     1019.0S
FORT PULASKI     0300   80     130/  3/  4 1019.3S
SAPELO ISLAND    0200   79     130/  3     1019.0S

$$

ANZ835-935-AMZ111-154-330-350-352-354-374-450-454-472-230400-
...C-MAN AND BUOY OBSERVATIONS...

STATION/POSITION TIME  TEMP    WIND        PRES    WAVE   SWELL
                       AIR SEA DIR/SP/G            HT/PER HT/PER/DIR
                 (UTC) (F)     (DEG/KT/KT) (MB)    (FT/S) (FT/S/D)
FOLLY BEACH CMAN 0200   80     140/  8/  9 1019.7R
BUOY 41004       0300   81 82  160/ 10/ 12 1018.7R   3/ 8   2/ 8
BUOY 41008       0300   81 84  150/  6/  8 1018.6R   3/ 8   2/110/ 8
5E ST. MARYS GA  0300      84                N/A     2/ 8
FRYING PAN BUOY  NOT AVBL
BUOY 41025       0300          VRB 17/ 19  1019.4F   4/ 8   2/130/ 8
CAPE LOOKOUT NC  0200   79     190/ 15/ 17 1019.5R
BUOY 41002       0250   81 82  190/ 12/ 14 1021.7F   3/ 8   3/110/ 8
BUOY 41010       0300   83 83  140/ 14/ 16 1019.7R   4/ 7   3/100/ 7
BUOY 41012       NOT AVBL
ST AUGUSTINE FL  0300   82     140/  7/  8 1018.9R
CAPERS NEARSHORE 0200   80     180/  8/ 10   N/A
FRIPP NEARSHORE  NOT AVBL


$$


USA.gov is the U.S. government's official web portal to all federal, state and local government web resources and services.